TimeEDT,TemperatureF,Dew PointF,Humidity,Sea Level PressureIn,VisibilityMPH,Wind Direction,Wind SpeedMPH,Gust SpeedMPH,PrecipitationIn,Events,Conditions,WindDirDegrees,DateUTC
12:15 AM,73.4,69.8,88,29.97,10.0,Calm,Calm,-,N/A,,Overcast,0,2013-10-07 04:15:00
12:35 AM,73.4,69.8,88,29.97,10.0,SSE,3.5,-,N/A,,Overcast,160,2013-10-07 04:35:00
12:55 AM,73.4,69.8,88,29.96,10.0,South,3.5,-,N/A,,Overcast,170,2013-10-07 04:55:00
1:15 AM,73.4,69.8,88,29.96,10.0,SSE,4.6,-,N/A,,Overcast,160,2013-10-07 05:15:00
1:35 AM,73.4,69.8,88,29.96,10.0,SSE,5.8,-,N/A,,Overcast,160,2013-10-07 05:35:00
1:55 AM,73.4,69.8,88,29.95,10.0,SSE,5.8,-,N/A,,Mostly Cloudy,150,2013-10-07 05:55:00
2:15 AM,73.4,69.8,88,29.95,10.0,SSE,3.5,-,N/A,,Mostly Cloudy,150,2013-10-07 06:15:00
2:35 AM,73.4,69.8,88,29.94,7.0,South,4.6,-,N/A,,Overcast,170,2013-10-07 06:35:00
2:55 AM,73.4,69.8,88,29.93,7.0,SSE,4.6,-,N/A,,Overcast,160,2013-10-07 06:55:00
3:15 AM,73.4,69.8,88,29.92,10.0,SSE,4.6,-,N/A,,Overcast,160,2013-10-07 07:15:00
3:35 AM,73.4,69.8,88,29.92,10.0,South,5.8,-,N/A,,Overcast,170,2013-10-07 07:35:00
3:55 AM,73.4,69.8,88,29.91,10.0,South,4.6,-,N/A,,Overcast,170,2013-10-07 07:55:00
4:15 AM,73.4,69.8,88,29.91,10.0,South,4.6,-,N/A,,Overcast,170,2013-10-07 08:15:00
4:35 AM,73.4,69.8,88,29.91,7.0,South,6.9,-,N/A,,Overcast,170,2013-10-07 08:35:00
4:55 AM,73.4,69.8,88,29.91,10.0,SSE,5.8,-,N/A,,Overcast,160,2013-10-07 08:55:00
5:15 AM,73.4,71.6,94,29.91,7.0,SSE,6.9,-,N/A,,Overcast,160,2013-10-07 09:15:00
5:35 AM,73.4,71.6,94,29.90,7.0,SSE,9.2,-,N/A,,Overcast,160,2013-10-07 09:35:00
5:55 AM,75.2,71.6,89,29.90,7.0,South,9.2,-,N/A,,Overcast,170,2013-10-07 09:55:00
6:15 AM,75.2,71.6,89,29.89,7.0,South,8.1,-,N/A,,Overcast,170,2013-10-07 10:15:00
6:35 AM,77.0,71.6,83,29.88,7.0,South,9.2,-,N/A,,Overcast,180,2013-10-07 10:35:00
6:55 AM,77.0,71.6,83,29.89,7.0,South,8.1,-,N/A,,Overcast,180,2013-10-07 10:55:00
7:15 AM,77.0,71.6,83,29.89,10.0,South,8.1,-,N/A,,Overcast,170,2013-10-07 11:15:00
7:35 AM,77.0,71.6,83,29.89,7.0,South,11.5,16.1,N/A,,Overcast,170,2013-10-07 11:35:00
7:55 AM,77.0,71.6,83,29.89,7.0,South,11.5,16.1,N/A,,Overcast,180,2013-10-07 11:55:00
8:15 AM,77.0,71.6,83,29.90,7.0,South,13.8,17.3,N/A,,Overcast,170,2013-10-07 12:15:00
8:35 AM,77.0,71.6,83,29.90,7.0,South,13.8,-,N/A,,Overcast,170,2013-10-07 12:35:00
8:55 AM,77.0,71.6,83,29.90,7.0,South,10.4,17.3,N/A,,Overcast,180,2013-10-07 12:55:00
9:15 AM,77.0,71.6,83,29.92,7.0,South,9.2,18.4,N/A,,Overcast,190,2013-10-07 13:15:00
9:35 AM,78.8,71.6,78,29.91,10.0,South,12.7,17.3,N/A,,Overcast,170,2013-10-07 13:35:00
9:55 AM,78.8,71.6,78,29.91,10.0,South,13.8,17.3,N/A,,Overcast,170,2013-10-07 13:55:00
10:15 AM,78.8,71.6,78,29.91,10.0,South,11.5,18.4,N/A,,Overcast,180,2013-10-07 14:15:00
10:35 AM,78.8,71.6,78,29.91,7.0,South,9.2,18.4,N/A,Rain,Light Rain,190,2013-10-07 14:35:00
10:55 AM,78.8,71.6,78,29.90,7.0,South,5.8,-,N/A,Rain,Light Rain,190,2013-10-07 14:55:00
11:15 AM,78.8,71.6,78,29.91,3.0,South,6.9,-,0.04,Rain,Heavy Rain,190,2013-10-07 15:15:00
11:35 AM,77.0,71.6,83,29.92,5.0,South,10.4,-,0.11,Rain,Rain,180,2013-10-07 15:35:00
11:55 AM,77.0,71.6,83,29.91,7.0,Calm,Calm,-,0.12,Rain,Light Rain,0,2013-10-07 15:55:00
12:15 PM,77.0,71.6,83,29.90,10.0,Calm,Calm,-,N/A,,Overcast,0,2013-10-07 16:15:00
12:35 PM,75.2,71.6,89,29.90,1.8,SSW,5.8,-,0.09,Rain,Heavy Rain,200,2013-10-07 16:35:00
12:55 PM,75.2,71.6,89,29.90,1.2,SW,4.6,-,0.29,Rain,Heavy Rain,220,2013-10-07 16:55:00
1:15 PM,73.4,69.8,88,29.90,4.0,SSW,11.5,20.7,0.09,Rain,Heavy Rain,210,2013-10-07 17:15:00
1:35 PM,73.4,69.8,88,29.90,7.0,SSW,4.6,-,0.17,Rain,Light Rain,200,2013-10-07 17:35:00
1:55 PM,73.4,69.8,88,29.91,4.0,Calm,Calm,-,0.20,Rain,Light Rain,0,2013-10-07 17:55:00
2:15 PM,73.4,69.8,88,29.91,10.0,Calm,Calm,-,N/A,,Light Drizzle,0,2013-10-07 18:15:00
2:35 PM,73.4,69.8,88,29.90,2.5,Calm,Calm,-,0.04,Rain,Rain,0,2013-10-07 18:35:00
2:55 PM,73.4,71.6,94,29.90,10.0,Calm,Calm,-,0.04,,Overcast,0,2013-10-07 18:55:00
3:15 PM,73.4,69.8,88,29.91,10.0,Calm,Calm,-,N/A,,Overcast,0,2013-10-07 19:15:00
3:35 PM,71.6,68.0,88,29.89,10.0,Calm,Calm,-,N/A,,Overcast,0,2013-10-07 19:35:00
3:55 PM,71.6,69.8,94,29.90,10.0,Calm,Calm,-,N/A,,Overcast,0,2013-10-07 19:55:00
4:15 PM,71.6,68.0,88,29.89,10.0,Calm,Calm,-,N/A,,Overcast,0,2013-10-07 20:15:00
4:35 PM,71.6,69.8,94,29.90,7.0,Calm,Calm,-,0.01,Rain,Light Rain,0,2013-10-07 20:35:00
4:55 PM,71.6,68.0,88,29.89,4.0,Calm,Calm,-,0.05,Rain,Rain,0,2013-10-07 20:55:00
5:15 PM,71.6,69.8,94,29.89,7.0,Calm,Calm,-,N/A,Rain,Light Rain,0,2013-10-07 21:15:00
5:35 PM,71.6,69.8,94,29.90,10.0,Calm,Calm,-,N/A,,Overcast,0,2013-10-07 21:35:00
5:55 PM,71.6,69.8,94,29.91,10.0,Calm,Calm,-,0.01,,Overcast,0,2013-10-07 21:55:00
6:15 PM,71.6,69.8,94,29.91,10.0,Calm,Calm,-,N/A,,Overcast,0,2013-10-07 22:15:00
6:35 PM,71.6,69.8,94,29.91,10.0,Calm,Calm,-,N/A,,Overcast,0,2013-10-07 22:35:00
6:55 PM,71.6,69.8,94,29.91,10.0,Calm,Calm,-,N/A,,Mostly Cloudy,0,2013-10-07 22:55:00
7:15 PM,71.6,69.8,94,29.92,10.0,Calm,Calm,-,N/A,,Mostly Cloudy,0,2013-10-07 23:15:00
7:35 PM,71.6,69.8,94,29.93,7.0,Calm,Calm,-,N/A,,Mostly Cloudy,0,2013-10-07 23:35:00
7:55 PM,71.6,69.8,94,29.93,7.0,Calm,Calm,-,N/A,,Mostly Cloudy,0,2013-10-07 23:55:00
8:15 PM,71.6,69.8,94,29.94,7.0,Calm,Calm,-,N/A,,Overcast,0,2013-10-08 00:15:00
8:35 PM,71.6,69.8,94,29.94,7.0,Calm,Calm,-,N/A,,Overcast,0,2013-10-08 00:35:00
8:55 PM,71.6,68.0,88,29.95,10.0,Calm,Calm,-,N/A,,Overcast,0,2013-10-08 00:55:00
9:15 PM,71.6,68.0,88,29.97,10.0,Calm,Calm,-,N/A,,Overcast,0,2013-10-08 01:15:00
9:35 PM,69.8,66.2,88,29.97,10.0,Calm,Calm,-,N/A,,Overcast,0,2013-10-08 01:35:00
9:55 PM,69.8,64.4,83,29.98,10.0,Calm,Calm,-,N/A,,Overcast,0,2013-10-08 01:55:00
10:15 PM,69.8,64.4,83,29.98,10.0,Calm,Calm,-,N/A,,Overcast,0,2013-10-08 02:15:00
10:35 PM,69.8,64.4,83,29.99,10.0,Calm,Calm,-,N/A,,Overcast,0,2013-10-08 02:35:00
10:55 PM,68.0,62.6,83,30.00,10.0,Calm,Calm,-,N/A,,Overcast,0,2013-10-08 02:55:00
11:15 PM,68.0,62.6,83,30.01,10.0,Calm,Calm,-,N/A,,Overcast,0,2013-10-08 03:15:00
11:35 PM,68.0,62.6,83,30.01,10.0,Calm,Calm,-,N/A,,Overcast,0,2013-10-08 03:35:00
11:55 PM,68.0,60.8,78,30.00,10.0,Calm,Calm,-,N/A,,Overcast,0,2013-10-08 03:55:00